Regional Weather Roundup
Issued by NWS Cleveland, OH

Home | Current Version | Previous Version | Text Only | Print | Product List | Glossary Off
Versions: 1 2 3 4 5 6 7 8 9 10 11 12 13 14 15 16 17 18 19 20 21 22 23 24 25 26 27 28 29 30 31 32 33 34 35 36 37 38 39 40 41 42 43 44 45 46 47 48 49 50

000
ASUS41 KCLE 210810
RWRCLE
OHIO REGIONAL WEATHER ROUNDUP
NATIONAL WEATHER SERVICE WILMINGTON, OH
400 AM EDT TUE APR 21 2015

NOTE: "FAIR" INDICATES FEW OR NO CLOUDS BELOW 12,000 FEET WITH NO
SIGNIFICANT WEATHER AND/OR OBSTRUCTIONS TO VISIBILITY.

OHZ001>008-015>018-024>027-034-035-043-044-210900-
   NORTHWEST OHIO

CITY           SKY/WX    TMP DP  RH WIND       PRES   REMARKS
DEFIANCE       CLOUDY    44  36  73 SW13      29.66S
FINDLAY        MOCLDY    45  35  68 SW14      29.67S
TOLEDO EXPRESS MOCLDY    41  34  76 SW9       29.64S
TOLEDO EXEC    MOCLDY    41  34  76 SW13      29.65F
LIMA           CLOUDY    45  35  68 SW17G25   29.70S
$$

OHZ009>014-019>023-028>033-038-089-210900-
   NORTHEAST OHIO

CITY           SKY/WX    TMP DP  RH WIND       PRES   REMARKS
CLE-HOPKINS    PTCLDY    44  31  60 SW17G24   29.69R
CLE-LAKEFRONT  PTCLDY    46  32  58 SW20G29   29.66R
CUY CO. ARPT   NOT AVBL
LORAIN-ELYRIA  CLEAR     43  33  68 W15       29.68R
ASHTABULA      CLOUDY    45  35  68 SW14      29.64S
AKRON-CANTON   CLOUDY    45  32  60 W15       29.70R
WOOSTER        CLOUDY    43  34  70 SW8       29.70S
MANSFIELD      MOCLDY    43  34  70 SW14      29.69S
YOUNGSTOWN     CLOUDY    45  31  58 W15G30    29.67R
$$

OHZ042-051>053-060>062-070>072-077>081-210900-
  SOUTHWEST OHIO

CITY           SKY/WX    TMP DP  RH WIND       PRES   REMARKS
CINC-COVINGTON PTCLDY    44  35  70 SW7       29.80S
CINC-LUNKEN    CLOUDY    46  37  71 W5        29.82S
HAMILTON       CLOUDY    47  34  60 SW9G18    29.80S
DAYTON         PTCLDY    44  36  73 W9        29.77R
WRIGHT-PAT AFB MOCLDY    45  36  70 SW14      29.76S
DAYTON GENERAL CLOUDY    46  34  62 SW13      29.77R
WILMINGTON     CLOUDY    44  34  67 SW10      29.78S
$$

OHZ036-037-039>041-045>050-054>059-063>069-073>076-082>088-210900-
  CENTRAL AND SOUTHEAST OHIO

CITY           SKY/WX    TMP DP  RH WIND       PRES   REMARKS
COLUMBUS       MOCLDY    45  36  70 SW10      29.76R
OSU AIRPORT    CLOUDY    46  35  65 SW10      29.75S
BOLTON FIELD   MOCLDY    44  37  75 SW12      29.77S
RICKENBACK AFB MOCLDY    44  36  74 SW8       29.77R
NEWARK         MOCLDY    46  36  68 SW12      29.75R
MARION         CLOUDY    44  33  65 SW14      29.72R
LANCASTER      PTCLDY    45  36  70 W10       29.77S
ZANESVILLE     CLOUDY    46  35  65 SW10G17   29.75S
NEW PHILLY     MOCLDY    48  34  58 SW5       29.73F
$$



USA.gov is the U.S. government's official web portal to all federal, state and local government web resources and services.